DW5657 Weather Reports


Display with metric or nautical units.
time (UTC)temp
F
wind
direction
speed
MPH
gust
MPH
rain 1hr
in
rain 24hr
in
rain mn
in
humidity
%
barometer
mb
20260509002704 66 77 1.0 3.0 0.00 0.00 0.00 50 1008.5
20260509002204 66 73 0.0 2.0 0.00 0.00 0.00 51 1008.6
20260509001704 66 79 0.0 2.0 0.00 0.00 0.00 51 1008.6
20260509001204 66 84 1.0 5.0 0.00 0.00 0.00 51 1008.7
20260509000703 66 78 0.0 2.0 0.00 0.00 0.00 51 1008.7
20260509000204 66 83 1.0 5.0 0.00 0.00 0.00 52 1008.7
20260508235703 66 75 1.0 3.0 0.00 0.00 0.00 51 1008.7
20260508235204 66 78 0.0 1.0 0.00 0.00 0.00 52 1008.6
20260508234704 66 76 0.0 0.0 0.00 0.00 0.00 53 1008.5
20260508234204 66 60 0.0 0.0 0.00 0.00 0.00 53 1008.6
20260508233704 66 77 0.0 0.0 0.00 0.00 0.00 54 1008.5
20260508233204 66 65 0.0 2.0 0.00 0.00 0.00 54 1008.6
20260508232704 67 76 1.0 2.0 0.00 0.00 0.00 53 1008.7
20260508232204 67 77 0.0 3.0 0.00 0.00 0.00 52 1008.8
20260508231704 67 66 1.0 3.0 0.00 0.00 0.00 51 1008.8
20260508231203 67 61 1.0 3.0 0.00 0.00 0.00 50 1008.6
20260508230704 67 60 0.0 2.0 0.00 0.00 0.00 49 1008.6
20260508230204 68 50 0.0 3.0 0.00 0.00 0.00 49 1008.6
20260508225704 68 56 2.0 7.0 0.00 0.00 0.00 48 1008.5
20260508225204 68 51 2.0 7.0 0.00 0.00 0.00 46 1008.5
20260508224704 68 47 1.0 3.0 0.00 0.00 0.00 47 1008.6
20260508224204 68 44 1.0 6.0 0.00 0.00 0.00 46 1008.5
20260508223703 68 42 1.0 6.0 0.00 0.00 0.00 46 1008.5
20260508223203 68 41 1.0 8.0 0.00 0.00 0.00 46 1008.4
20260508222705 68 51 1.0 8.0 0.00 0.00 0.00 45 1008.4
20260508221204 68 45 3.0 10.0 0.00 0.00 0.00 45 1008.4
20260508220704 68 34 2.0 6.0 0.00 0.00 0.00 46 1008.4
20260508215203 68 45 5.0 7.0 0.00 0.00 0.00 43 1008.4
20260508214704 68 42 3.0 9.0 0.00 0.00 0.00 44 1008.4
20260508214205 69 44 5.0 10.0 0.00 0.00 0.00 43 1008.4
20260508213704 69 43 3.0 8.0 0.00 0.00 0.00 44 1008.5
20260508213203 69 46 2.0 8.0 0.00 0.00 0.00 43 1008.5
20260508212204 69 39 4.0 13.0 0.00 0.00 0.00 43 1008.6
20260508211704 69 45 6.0 12.0 0.00 0.00 0.00 43 1008.6
20260508210703 69 51 4.0 12.0 0.00 0.00 0.00 44 1008.8
20260508210204 68 48 2.0 12.0 0.00 0.00 0.00 44 1008.8
20260508205704 68 47 4.0 9.0 0.00 0.00 0.00 43 1009.0
20260508205204 68 45 5.0 9.0 0.00 0.00 0.00 43 1009.1
20260508204704 68 43 3.0 9.0 0.00 0.00 0.00 43 1009.2
20260508204205 69 40 5.0 9.0 0.00 0.00 0.00 42 1009.3
20260508203204 69 41 5.0 10.0 0.00 0.00 0.00 43 1009.4
20260508202704 69 35 5.0 9.0 0.00 0.00 0.00 42 1009.4
20260508202205 69 40 5.0 14.0 0.00 0.00 0.00 42 1009.5
20260508201704 69 46 3.0 7.0 0.00 0.00 0.00 42 1009.5
20260508201204 69 54 4.0 12.0 0.00 0.00 0.00 42 1009.7
20260508200704 69 46 3.0 7.0 0.00 0.00 0.00 42 1009.6
20260508200204 69 45 3.0 7.0 0.00 0.00 0.00 43 1009.6
20260508195704 69 40 3.0 8.0 0.00 0.00 0.00 42 1009.7
20260508195204 69 38 2.0 8.0 0.00 0.00 0.00 43 1009.7
20260508194203 69 37 4.0 9.0 0.00 0.00 0.00 42 1009.8
20260508193202 69 33 3.0 12.0 0.00 0.00 0.00 40 1009.8
20260508192703 70 37 4.0 12.0 0.00 0.00 0.00 40 1009.8
20260508192203 70 42 7.0 9.0 0.00 0.00 0.00 39 1009.9
20260508191703 71 66 3.0 9.0 0.00 0.00 0.00 39 1010.1
20260508191204 71 69 5.0 13.0 0.00 0.00 0.00 39 1010.1
20260508190702 71 71 5.0 10.0 0.00 0.00 0.00 42 1010.1
20260508190203 70 65 2.0 8.0 0.00 0.00 0.00 42 1010.1
20260508185703 70 50 4.0 13.0 0.00 0.00 0.00 41 1010.3
20260508185203 70 51 5.0 13.0 0.00 0.00 0.00 39 1010.5
20260508184702 70 58 5.0 13.0 0.00 0.00 0.00 40 1010.6
20260508184203 70 55 6.0 12.0 0.00 0.00 0.00 39 1010.6
20260508183202 70 72 4.0 12.0 0.00 0.00 0.00 42 1010.8
20260508182703 70 74 3.0 12.0 0.00 0.00 0.00 42 1010.9
20260508182203 70 76 4.0 10.0 0.00 0.00 0.00 41 1010.9
20260508181703 69 64 3.0 9.0 0.00 0.00 0.00 44 1011.0
20260508181203 69 51 3.0 13.0 0.00 0.00 0.00 43 1011.1
20260508180703 69 40 5.0 14.0 0.00 0.00 0.00 42 1011.1
20260508180204 68 36 6.0 14.0 0.00 0.00 0.00 42 1011.3
20260508175703 69 45 6.0 14.0 0.00 0.00 0.00 39 1011.3
20260508175203 68 52 6.0 14.0 0.00 0.00 0.00 39 1011.3
20260508174704 68 51 5.0 9.0 0.00 0.00 0.00 41 1011.4
20260508174205 68 49 6.0 12.0 0.00 0.00 0.00 41 1011.4
20260508173703 68 46 5.0 9.0 0.00 0.00 0.00 43 1011.6
20260508173204 68 42 7.0 12.0 0.00 0.00 0.00 42 1011.8
20260508172703 68 46 5.0 10.0 0.00 0.00 0.00 42 1012.0
20260508172203 68 56 4.0 7.0 0.00 0.00 0.00 45 1012.0
20260508171703 68 57 3.0 12.0 0.00 0.00 0.00 45 1012.0
20260508171203 68 66 3.0 10.0 0.00 0.00 0.00 44 1012.0
20260508170702 69 86 5.0 10.0 0.00 0.00 0.00 45 1012.2
20260508170204 68 107 3.0 8.0 0.00 0.00 0.00 46 1012.2
20260508165703 68 97 3.0 7.0 0.00 0.00 0.00 45 1012.4
20260508165204 68 100 5.0 12.0 0.00 0.00 0.00 46 1012.5
20260508164704 68 110 6.0 13.0 0.00 0.00 0.00 45 1012.6
20260508164203 68 110 6.0 13.0 0.00 0.00 0.00 45 1012.8
20260508163703 68 97 4.0 13.0 0.00 0.00 0.00 47 1012.8
20260508163203 67 114 7.0 13.0 0.00 0.00 0.00 45 1012.8
20260508162703 67 104 6.0 12.0 0.00 0.00 0.00 47 1012.9
20260508162203 67 101 5.0 13.0 0.00 0.00 0.00 46 1012.9
20260508161703 67 111 6.0 12.0 0.00 0.00 0.00 48 1012.9
20260508161204 66 117 7.0 14.0 0.00 0.00 0.00 47 1013.0
20260508160704 66 122 6.0 10.0 0.00 0.00 0.00 47 1013.1
20260508160203 66 112 5.0 12.0 0.00 0.00 0.00 47 1013.1
20260508155703 66 107 6.0 12.0 0.00 0.00 0.00 46 1013.2
20260508154702 66 104 5.0 12.0 0.00 0.00 0.00 49 1013.2
20260508154203 65 113 3.0 9.0 0.00 0.00 0.00 49 1013.3
20260508153702 65 125 6.0 14.0 0.00 0.00 0.00 50 1013.5
20260508153203 65 123 7.0 14.0 0.00 0.00 0.00 49 1013.6
20260508151703 64 124 5.0 9.0 0.00 0.00 0.00 50 1013.6
20260508151203 64 124 6.0 14.0 0.00 0.00 0.00 49 1013.7
20260508150702 64 128 4.0 12.0 0.00 0.00 0.00 50 1013.7
20260508145703 63 118 6.0 12.0 0.00 0.00 0.00 49 1013.6
20260508145204 63 133 4.0 10.0 0.00 0.00 0.00 49 1013.7
20260508144703 63 131 5.0 10.0 0.00 0.00 0.00 51 1013.7
20260508144202 63 123 5.0 10.0 0.00 0.00 0.00 50 1013.8
20260508143702 62 126 6.0 9.0 0.00 0.00 0.00 50 1013.8
20260508143203 62 138 5.0 12.0 0.00 0.00 0.00 49 1013.8
20260508142703 62 134 3.0 6.0 0.00 0.00 0.00 51 1013.9
20260508142202 61 118 3.0 7.0 0.00 0.00 0.00 52 1014.0
20260508141703 61 115 5.0 10.0 0.00 0.00 0.00 51 1014.0
20260508140203 60 114 2.0 8.0 0.00 0.00 0.00 54 1014.1
20260508135703 59 87 3.0 9.0 0.00 0.00 0.00 52 1014.1
20260508135204 59 55 6.0 13.0 0.00 0.00 0.00 53 1014.2
20260508134703 58 55 4.0 9.0 0.00 0.00 0.00 55 1014.2
20260508134203 58 54 3.0 9.0 0.00 0.00 0.00 56 1014.2
20260508132703 56 71 4.0 8.0 0.00 0.00 0.00 59 1014.3
20260508132203 55 63 2.0 8.0 0.00 0.00 0.00 59 1014.2
20260508131703 55 72 2.0 5.0 0.00 0.00 0.00 60 1014.3
20260508131204 55 74 2.0 6.0 0.00 0.00 0.00 60 1014.3
20260508130704 54 75 3.0 6.0 0.00 0.00 0.00 63 1014.3
20260508130203 54 66 1.0 2.0 0.00 0.00 0.00 63 1014.3
20260508125204 53 102 1.0 5.0 0.00 0.00 0.00 64 1014.1
20260508124704 52 98 0.0 3.0 0.00 0.00 0.00 63 1014.2
20260508124203 52 97 2.0 5.0 0.00 0.00 0.00 65 1014.1
20260508123704 51 104 1.0 3.0 0.00 0.00 0.00 65 1014.1
20260508123203 51 96 0.0 1.0 0.00 0.00 0.00 66 1014.1
20260508122703 51 110 0.0 1.0 0.00 0.00 0.00 66 1014.1
20260508122203 51 101 0.0 2.0 0.00 0.00 0.00 67 1014.1
20260508121703 50 102 0.0 2.0 0.00 0.00 0.00 67 1014.0
20260508121203 50 102 0.0 2.0 0.00 0.00 0.00 67 1014.2
20260508120703 50 116 0.0 2.0 0.00 0.00 0.00 68 1014.1
20260508120203 50 112 0.0 3.0 0.00 0.00 0.00 67 1014.1
20260508115703 49 107 1.0 3.0 0.00 0.00 0.00 68 1014.1
20260508115203 49 115 0.0 0.0 0.00 0.00 0.00 68 1014.1
20260508113703 49 115 0.0 0.0 0.00 0.00 0.00 67 1013.8
20260508112703 49 116 0.0 0.0 0.00 0.00 0.00 68 1013.8
20260508112203 49 116 0.0 0.0 0.00 0.00 0.00 67 1013.8
20260508111704 49 116 0.0 0.0 0.00 0.00 0.00 67 1013.7
20260508111204 49 114 0.0 0.0 0.00 0.00 0.00 67 1013.7
20260508110704 49 116 0.0 0.0 0.00 0.00 0.00 67 1013.6
20260508110203 49 116 0.0 0.0 0.00 0.00 0.00 67 1013.5
20260508105703 49 115 0.0 0.0 0.00 0.00 0.00 67 1013.5
20260508105203 49 114 0.0 0.0 0.00 0.00 0.00 66 1013.5
20260508104703 49 116 0.0 0.0 0.00 0.00 0.00 67 1013.6
20260508104203 49 118 0.0 0.0 0.00 0.00 0.00 67 1013.7
20260508103703 49 117 0.0 1.0 0.00 0.00 0.00 67 1013.7
20260508103204 48 129 0.0 0.0 0.00 0.00 0.00 67 1013.7
20260508102703 48 117 1.0 3.0 0.00 0.00 0.00 67 1013.6
20260508102204 48 106 0.0 0.0 0.00 0.00 0.00 67 1013.6
20260508101703 48 106 0.0 0.0 0.00 0.00 0.00 67 1013.6
20260508101202 48 107 0.0 0.0 0.00 0.00 0.00 68 1013.5
20260508100703 48 105 0.0 0.0 0.00 0.00 0.00 67 1013.5
20260508100204 48 107 0.0 0.0 0.00 0.00 0.00 67 1013.5
20260508095703 48 105 0.0 0.0 0.00 0.00 0.00 68 1013.5
20260508095203 48 104 0.0 0.0 0.00 0.00 0.00 68 1013.6
20260508094703 48 104 0.0 0.0 0.00 0.00 0.00 68 1013.6
20260508094203 48 104 0.0 0.0 0.00 0.00 0.00 68 1013.7
20260508093703 48 104 0.0 0.0 0.00 0.00 0.00 68 1013.6
20260508093203 48 105 0.0 0.0 0.00 0.00 0.00 68 1013.7
20260508092703 48 105 0.0 0.0 0.00 0.00 0.00 67 1013.6
20260508092203 48 105 0.0 0.0 0.00 0.00 0.00 68 1013.5
20260508091704 47 106 0.0 0.0 0.00 0.00 0.00 68 1013.6
20260508090703 47 101 0.0 0.0 0.00 0.00 0.00 68 1013.7
20260508090203 47 99 0.0 0.0 0.00 0.00 0.00 68 1013.7
20260508085703 47 103 0.0 0.0 0.00 0.00 0.00 68 1013.6
20260508085203 47 112 0.0 0.0 0.00 0.00 0.00 68 1013.6
20260508084203 47 112 0.0 0.0 0.00 0.00 0.00 67 1013.5
20260508083704 47 111 0.0 0.0 0.00 0.00 0.00 67 1013.5
20260508083204 47 110 0.0 0.0 0.00 0.00 0.00 67 1013.4
20260508082203 47 112 0.0 0.0 0.00 0.00 0.00 67 1013.5
20260508081203 47 109 0.0 0.0 0.00 0.00 0.00 66 1013.4
20260508080703 47 109 0.0 0.0 0.00 0.00 0.00 66 1013.5
20260508080204 47 124 0.0 0.0 0.00 0.00 0.00 66 1013.4
20260508075704 47 121 0.0 0.0 0.00 0.00 0.00 67 1013.5
20260508075204 47 122 0.0 0.0 0.00 0.00 0.00 66 1013.6
20260508074704 47 118 0.0 0.0 0.00 0.00 0.00 67 1013.5
20260508074204 47 119 0.0 0.0 0.00 0.00 0.00 66 1013.5
20260508073703 47 119 0.0 0.0 0.00 0.00 0.00 66 1013.4
20260508073204 47 117 0.0 0.0 0.00 0.00 0.00 66 1013.3
20260508072204 47 114 0.0 0.0 0.00 0.00 0.00 67 1013.5
20260508071703 47 114 0.0 0.0 0.00 0.00 0.00 66 1013.5
20260508071203 47 115 0.0 0.0 0.00 0.00 0.00 67 1013.5
20260508070704 47 119 0.0 0.0 0.00 0.00 0.00 66 1013.6
20260508070203 47 119 0.0 0.0 0.00 0.00 0.00 67 1013.6
20260508065703 47 119 0.0 0.0 0.00 0.00 0.00 66 1013.6
20260508065204 47 118 0.0 0.0 0.00 0.00 0.00 66 1013.7
20260508064203 47 116 0.0 0.0 0.00 0.00 0.00 66 1013.9
20260508063704 47 116 0.0 0.0 0.00 0.00 0.00 67 1014.0
20260508063203 47 118 0.0 1.0 0.00 0.00 0.00 67 1014.1
20260508062703 47 124 0.0 1.0 0.00 0.00 0.00 67 1014.1
20260508062203 47 127 0.0 0.0 0.00 0.00 0.00 67 1014.1
20260508061704 47 125 0.0 0.0 0.00 0.00 0.00 67 1014.2
20260508060704 47 123 0.0 0.0 0.00 0.00 0.00 67 1014.2
20260508060204 47 121 0.0 0.0 0.00 0.00 0.00 67 1014.1
20260508055703 48 122 0.0 0.0 0.00 0.00 0.00 67 1014.1
20260508055203 48 118 0.0 0.0 0.00 0.00 0.00 67 1014.2
20260508054203 48 118 0.0 0.0 0.00 0.00 0.00 65 1014.2
20260508053703 48 116 0.0 0.0 0.00 0.00 0.00 64 1014.3
20260508053204 48 114 0.0 0.0 0.00 0.00 0.00 64 1014.2
20260508052203 49 109 0.0 0.0 0.00 0.00 0.00 63 1014.1
20260508051703 49 108 0.0 0.0 0.00 0.00 0.00 63 1014.1
20260508051203 49 109 0.0 0.0 0.00 0.00 0.00 62 1014.1
20260508050703 49 109 0.0 0.0 0.00 0.00 0.00 62 1014.0
20260508050204 49 107 0.0 0.0 0.00 0.00 0.00 61 1014.0
20260508045703 49 109 0.0 0.0 0.00 0.00 0.00 61 1014.1
20260508045204 49 112 0.0 0.0 0.00 0.00 0.00 61 1014.1
20260508044703 50 111 0.0 0.0 0.00 0.00 0.00 61 1014.1
20260508044203 50 110 0.0 0.0 0.00 0.00 0.00 60 1014.1
20260508043703 50 111 0.0 0.0 0.00 0.00 0.00 60 1014.0
20260508043204 50 109 0.0 0.0 0.00 0.00 0.00 59 1014.0
20260508042703 50 109 0.0 0.0 0.00 0.00 0.00 59 1014.0
20260508042203 50 108 0.0 0.0 0.00 0.00 0.00 59 1014.1
20260508041203 50 109 0.0 0.0 0.00 0.00 0.00 58 1014.0
20260508040204 51 111 0.0 0.0 0.00 0.00 0.00 58 1013.8
20260508035702 51 109 0.0 0.0 0.00 0.00 0.00 58 1013.9
20260508034703 51 109 0.0 0.0 0.00 0.00 0.00 57 1013.9
20260508034203 51 108 0.0 0.0 0.00 0.00 0.00 57 1013.9
20260508033203 51 109 0.0 0.0 0.00 0.00 0.00 57 1014.0
20260508032703 51 109 0.0 0.0 0.00 0.00 0.00 57 1014.0
20260508032203 51 107 0.0 0.0 0.00 0.00 0.00 57 1014.0
20260508031703 51 107 0.0 0.0 0.00 0.00 0.00 57 1014.0
20260508031203 51 105 0.0 0.0 0.00 0.00 0.00 57 1013.9
20260508030203 51 104 0.0 0.0 0.00 0.00 0.00 57 1014.0
20260508025203 51 106 0.0 0.0 0.00 0.00 0.00 57 1014.1
20260508024703 51 109 0.0 0.0 0.00 0.00 0.00 58 1014.1
20260508024203 51 109 0.0 0.0 0.00 0.00 0.00 57 1014.1
20260508023704 51 106 0.0 0.0 0.00 0.00 0.00 57 1014.0
20260508023203 51 105 0.0 0.0 0.00 0.00 0.00 57 1013.9
20260508022704 51 101 0.0 0.0 0.00 0.00 0.00 56 1013.8
20260508021703 52 99 0.0 0.0 0.00 0.00 0.00 58 1014.0
20260508021204 52 100 0.0 0.0 0.00 0.00 0.00 58 1013.9
20260508020704 52 102 0.0 0.0 0.00 0.00 0.00 57 1013.8
20260508020203 52 101 0.0 0.0 0.00 0.00 0.00 56 1013.8
20260508015703 52 100 0.0 0.0 0.00 0.00 0.00 57 1013.9
20260508014704 52 101 0.0 0.0 0.00 0.00 0.00 55 1013.9
20260508014203 53 102 0.0 0.0 0.00 0.00 0.00 55 1013.9
20260508013704 53 102 0.0 0.0 0.00 0.00 0.00 55 1013.9
20260508013203 53 103 0.0 0.0 0.00 0.00 0.00 54 1013.8
20260508012703 53 102 0.0 0.0 0.00 0.00 0.00 53 1013.8
20260508012204 54 98 0.0 0.0 0.00 0.00 0.00 54 1013.8
20260508011703 54 99 0.0 0.0 0.00 0.00 0.00 53 1013.8
20260508011203 55 96 0.0 0.0 0.00 0.00 0.00 52 1013.8
20260508010703 55 95 0.0 0.0 0.00 0.00 0.00 52 1013.8
20260508010203 55 93 0.0 0.0 0.00 0.00 0.00 52 1013.8
20260508005704 56 92 0.0 0.0 0.00 0.00 0.00 51 1013.7
20260508005203 56 97 0.0 0.0 0.00 0.00 0.00 49 1013.6
20260508004703 56 90 0.0 0.0 0.00 0.00 0.00 47 1013.6
20260508004203 57 89 0.0 0.0 0.00 0.00 0.00 47 1013.6
20260508003204 57 82 0.0 0.0 0.00 0.00 0.00 45 1013.5